This is the latest recevied weather packets stored in our database for station/object CQ0XVC-11. If no packets are shown the sender has not sent any weather packets the latest 10 day(s).
| Time | Temp. | Humidity | Pressure | Rain* | Wind** | Luminosity | Snow |
|---|---|---|---|---|---|---|---|
| 1777947804 | 7.22° C | 72% | 1004 hPa | 0 mm | - | - | - |
| 1777947578 | 7.22° C | 72% | 1004.2 hPa | 0 mm | - | - | - |
| 1777947502 | 7.22° C | 72% | 1004.2 hPa | 0 mm | - | - | - |
| 1777947200 | 7.22° C | 73% | 1004 hPa | 0 mm | - | - | - |
| 1777946898 | 7.22° C | 74% | 1004.2 hPa | 0 mm | - | - | - |
| 1777946595 | 7.22° C | 73% | 1004.1 hPa | 0 mm | - | - | - |
| 1777946338 | 7.22° C | 75% | 1004.1 hPa | 0 mm | - | - | - |
| 1777946294 | 7.22° C | 75% | 1004.1 hPa | 0 mm | - | - | - |
| 1777946047 | 7.22° C | 74% | 1004 hPa | 0 mm | - | - | - |
| 1777945991 | 7.22° C | 74% | 1004 hPa | 0 mm | - | - | - |
| 1777945689 | 7.22° C | 71% | 1004.1 hPa | 0 mm | - | - | - |
| 1777945387 | 7.22° C | 74% | 1004 hPa | 0 mm | - | - | - |
| 1777945127 | 7.22° C | 74% | 1004.3 hPa | 0 mm | - | - | - |
| 1777945085 | 7.22° C | 74% | 1004.3 hPa | 0 mm | - | - | - |
| 1777944836 | 7.22° C | 72% | 1004.3 hPa | 0 mm | - | - | - |
| 1777944782 | 7.22° C | 72% | 1004.3 hPa | 0 mm | - | - | - |
| 1777944545 | 7.22° C | 71% | 1004.4 hPa | 0 mm | - | - | - |
| 1777944481 | 7.22° C | 71% | 1004.4 hPa | 0 mm | - | - | - |
| 1777944178 | 7.22° C | 71% | 1004.5 hPa | 0 mm | - | - | - |
| 1777943920 | 7.22° C | 71% | 1004.5 hPa | 0 mm | - | - | - |
| 1777943876 | 7.22° C | 71% | 1004.5 hPa | 0 mm | - | - | - |
| 1777943606 | 7.22° C | 72% | 1004.5 hPa | 0 mm | - | - | - |
| 1777943574 | 7.22° C | 72% | 1004.5 hPa | 0 mm | - | - | - |
| 1777943350 | 7.22° C | 71% | 1004.6 hPa | 0 mm | - | - | - |
| 1777943272 | 7.22° C | 71% | 1004.6 hPa | 0 mm | - | - | - |
* Rain since midnight (hover to see other rain measurements)
** Current wind speed in m/s (hover to see current wind gust speed)